FW4310 Weather Reports


time (UTC)temp
C
wind
direction
speed
KPH
gust
KPH
rain 1hr
cm
rain 24hr
cm
rain mn
cm
humidity
%
barometer
mb
20260509135305 22 186 1.6 4.8 0.00 0.03 0.03 85 1015.1
20260509134802 22 196 0.0 3.2 0.00 0.03 0.03 85 1015.2
20260509134305 22 197 0.0 0.0 0.00 0.03 0.03 85 1015.2
20260509133805 22 197 0.0 0.0 0.00 0.03 0.03 86 1015.2
20260509132802 22 197 0.0 1.6 0.00 0.03 0.03 86 1015.3
20260509132306 22 197 0.0 1.6 0.00 0.03 0.03 86 1015.3
20260509131802 22 197 0.0 1.6 0.00 0.03 0.03 87 1015.4
20260509131303 22 197 0.0 1.6 0.00 0.03 0.03 87 1015.4
20260509130802 22 197 0.0 0.0 0.00 0.03 0.03 87 1015.3
20260509130305 21 197 0.0 3.2 0.00 0.03 0.03 87 1015.4
20260509125801 21 197 0.0 3.2 0.00 0.03 0.03 87 1015.4
20260509125307 21 197 0.0 1.6 0.00 0.03 0.03 88 1015.4
20260509124802 21 197 0.0 1.6 0.00 0.03 0.03 88 1015.3
20260509124302 21 197 0.0 0.0 0.00 0.03 0.03 88 1015.3
20260509123801 21 197 0.0 3.2 0.00 0.03 0.03 88 1015.3
20260509123302 21 197 0.0 3.2 0.00 0.03 0.03 88 1015.3
20260509122801 21 196 0.0 1.6 0.00 0.03 0.03 88 1015.4
20260509122305 21 192 0.0 3.2 0.00 0.03 0.03 88 1015.4
20260509121801 21 192 0.0 3.2 0.00 0.03 0.03 88 1015.2
20260509121309 21 191 0.0 1.6 0.00 0.03 0.03 89 1015.3
20260509120802 21 191 0.0 0.0 0.00 0.03 0.03 89 1015.1
20260509120302 21 191 0.0 0.0 0.00 0.03 0.03 89 1015.1
20260509115802 21 190 0.0 0.0 0.00 0.03 0.03 89 1015.0
20260509115302 20 191 0.0 0.0 0.00 0.03 0.03 89 1015.0
20260509114756 20 191 0.0 0.0 0.00 0.03 0.03 90 1014.9
20260509114255 20 191 0.0 0.0 0.00 0.03 0.03 90 1014.8
20260509113754 20 191 0.0 0.0 0.00 0.03 0.03 91 1014.6
20260509113252 20 191 0.0 0.0 0.00 0.03 0.03 91 1014.6
20260509112751 19 191 0.0 0.0 0.00 0.03 0.03 91 1014.7
20260509112250 19 190 0.0 0.0 0.00 0.03 0.03 91 1014.5
20260509111751 18 190 0.0 0.0 0.00 0.03 0.03 91 1014.5
20260509111253 18 190 0.0 0.0 0.00 0.03 0.03 91 1014.5
20260509110751 18 190 0.0 0.0 0.00 0.03 0.03 91 1014.5
20260509110249 18 190 0.0 0.0 0.00 0.03 0.03 90 1014.4
20260509105748 18 190 0.0 0.0 0.00 0.03 0.03 90 1014.4
20260509105250 18 191 0.0 0.0 0.00 0.03 0.03 91 1014.2
20260509104746 18 190 0.0 0.0 0.00 0.03 0.03 91 1014.2
20260509104244 18 190 0.0 0.0 0.00 0.03 0.03 90 1014.2
20260509103240 18 190 0.0 0.0 0.00 0.03 0.03 90 1014.1
20260509102739 18 190 0.0 0.0 0.00 0.03 0.03 90 1014.1
20260509102235 18 190 0.0 0.0 0.00 0.03 0.03 90 1014.0
20260509101734 18 190 0.0 0.0 0.00 0.03 0.03 90 1014.1
20260509101503 18 190 0.0 0.0 0.00 0.03 0.03 90 1014.1
20260509100731 18 190 0.0 0.0 0.00 0.03 0.03 90 1014.1
20260509100234 18 190 0.0 0.0 0.00 0.03 0.03 90 1014.1
20260509095230 18 190 0.0 0.0 0.00 0.03 0.03 90 1014.0
20260509094732 18 190 0.0 0.0 0.00 0.03 0.03 90 1014.0
20260509094230 19 190 0.0 0.0 0.00 0.03 0.03 90 1014.1
20260509093730 19 190 0.0 0.0 0.00 0.03 0.03 90 1014.1
20260509093229 19 190 0.0 1.6 0.00 0.03 0.03 89 1014.0
20260509092730 19 190 0.0 1.6 0.00 0.03 0.03 90 1013.9
20260509092229 19 190 0.0 1.6 0.00 0.03 0.03 89 1013.9
20260509091730 19 190 0.0 1.6 0.00 0.03 0.03 89 1014.1
20260509091454 19 190 0.0 0.0 0.00 0.03 0.03 89 1014.2
20260509090229 19 190 0.0 0.0 0.00 0.03 0.03 89 1014.5
20260509085956 19 190 0.0 0.0 0.00 0.03 0.03 89 1014.4
20260509085229 19 190 0.0 0.0 0.00 0.03 0.03 89 1014.5
20260509084731 19 190 0.0 1.6 0.00 0.03 0.03 89 1014.6
20260509084229 19 190 0.0 1.6 0.00 0.03 0.03 88 1014.4
20260509083734 19 190 0.0 1.6 0.00 0.03 0.03 88 1014.9
20260509083229 20 190 0.0 1.6 0.00 0.03 0.03 88 1014.8
20260509082729 20 190 0.0 0.0 0.00 0.03 0.03 88 1014.5
20260509082229 20 190 0.0 1.6 0.00 0.03 0.03 88 1014.4
20260509081730 20 190 0.0 3.2 0.00 0.03 0.03 88 1014.4
20260509081229 20 190 1.6 3.2 0.00 0.03 0.03 87 1014.4
20260509080729 20 190 0.0 3.2 0.00 0.03 0.03 87 1014.3
20260509080458 20 190 0.0 1.6 0.00 0.03 0.03 87 1014.4
20260509075730 20 190 0.0 1.6 0.00 0.03 0.03 87 1014.5
20260509075226 20 190 0.0 1.6 0.00 0.03 0.03 86 1014.6
20260509074728 20 191 0.0 1.6 0.00 0.03 0.03 86 1014.9
20260509074226 20 190 0.0 3.2 0.00 0.03 0.03 85 1014.9
20260509074000 20 190 0.0 3.2 0.00 0.03 0.03 85 1014.6
20260509073225 20 190 1.6 8.0 0.00 0.03 0.03 85 1014.5
20260509072727 20 191 4.8 9.7 0.00 0.03 0.03 85 1014.6
20260509072225 20 169 6.4 9.7 0.00 0.03 0.03 85 1014.4
20260509071727 20 187 6.4 9.7 0.00 0.03 0.03 86 1014.4
20260509071226 20 194 3.2 9.7 0.00 0.03 0.03 86 1014.3
20260509070724 20 202 3.2 9.7 0.00 0.03 0.03 86 1014.3
20260509070221 20 90 3.2 9.7 0.00 0.03 0.03 86 1014.3
20260509065954 20 94 1.6 9.7 0.00 0.03 0.03 86 1014.5
20260509065222 20 130 0.0 3.2 0.00 0.03 0.03 86 1014.7
20260509064224 20 130 1.6 4.8 0.00 0.03 0.03 86 1015.2
20260509063725 20 130 1.6 4.8 0.00 0.03 0.03 86 1015.2
20260509063449 20 142 1.6 4.8 0.00 0.03 0.03 86 1014.9
20260509062725 20 142 0.0 4.8 0.00 0.03 0.03 86 1014.9
20260509061709 20 142 1.6 6.4 0.00 0.03 0.03 85 1015.4
20260509061205 20 95 3.2 14.5 0.00 0.03 0.03 85 1015.2
20260509060704 20 95 6.4 14.5 0.00 0.03 0.03 85 1015.1
20260509060206 20 111 6.4 14.5 0.00 0.03 0.03 85 1014.9
20260509055431 20 97 1.6 9.7 0.00 0.03 0.03 86 1015.4
20260509054708 20 97 1.6 4.8 0.00 0.03 0.03 85 1015.8
20260509054206 20 96 1.6 4.8 0.00 0.03 0.03 85 1015.9
20260509053706 20 96 1.6 4.8 0.00 0.03 0.03 86 1015.8
20260509053205 20 101 1.6 6.4 0.00 0.03 0.03 86 1016.1
20260509052931 20 101 1.6 6.4 0.00 0.03 0.03 86 1016.4
20260509052214 20 98 1.6 9.7 0.03 0.03 0.03 86 1016.4
20260509051704 20 98 1.6 9.7 0.03 0.03 0.03 86 1016.4
20260509051203 20 85 3.2 9.7 0.03 0.03 0.03 86 1016.2
20260509050706 20 84 3.2 9.7 0.03 0.03 0.03 86 1016.3
20260509050207 20 100 1.6 6.4 0.03 0.03 0.03 85 1016.7
20260509045429 20 165 1.6 8.0 0.03 0.03 0.03 85 1016.7
20260509044704 20 165 3.2 9.7 0.03 0.03 0.03 85 1017.0
20260509044155 20 211 3.2 9.7 0.03 0.03 0.03 85 1016.7
20260509043649 20 92 3.2 8.0 0.03 0.03 0.03 85 1016.6
20260509043142 20 188 3.2 8.0 0.03 0.03 0.03 84 1016.3
20260509042644 20 183 3.2 8.0 0.00 0.00 0.00 83 1016.3
20260509042144 20 215 1.6 6.4 0.00 0.00 0.00 83 1016.1
20260509041642 20 189 1.6 6.4 0.00 0.00 0.00 82 1016.4
20260509041141 20 192 1.6 6.4 0.00 0.00 0.00 81 1016.6
20260509040642 20 163 1.6 6.4 0.00 0.00 0.00 80 1016.9
20260509040143 20 146 1.6 6.4 0.00 0.00 0.00 80 1017.2
20260509035640 20 93 1.6 6.4 0.00 0.00 0.00 80 1017.2
20260509035138 20 188 3.2 6.4 0.00 0.00 0.00 80 1017.2
20260509034403 20 189 3.2 8.0 0.00 0.00 0.00 81 1017.6
20260509033639 20 190 1.6 6.4 0.00 0.00 0.00 81 1017.7
20260509033138 20 166 0.0 6.4 0.00 0.00 0.00 81 1017.6
20260509032902 20 165 1.6 6.4 0.00 0.00 0.00 80 1017.6
20260509032132 20 165 1.6 6.4 0.00 0.00 0.00 80 1017.7
20260509031633 20 104 0.0 3.2 0.00 0.00 0.00 80 1017.7
20260509031133 20 103 0.0 4.8 0.00 0.00 0.00 80 1017.6
20260509030632 20 104 1.6 4.8 0.00 0.00 0.00 80 1017.5
20260509030132 20 103 1.6 4.8 0.00 0.00 0.00 79 1017.8
20260509025634 20 104 1.6 4.8 0.00 0.00 0.00 79 1017.9
20260509025133 20 104 1.6 4.8 0.00 0.00 0.00 78 1017.8
20260509024632 20 104 0.0 4.8 0.00 0.00 0.00 78 1018.0
20260509024133 20 104 0.0 3.2 0.00 0.00 0.00 77 1018.0
20260509023632 20 104 0.0 4.8 0.00 0.00 0.00 76 1018.0
20260509023132 20 104 3.2 11.3 0.00 0.00 0.00 77 1017.9
20260509022632 20 103 3.2 11.3 0.00 0.00 0.00 77 1017.8
20260509022132 20 100 1.6 9.7 0.00 0.00 0.00 77 1017.7
20260509021632 20 113 3.2 9.7 0.00 0.00 0.00 78 1017.6
20260509020636 20 86 3.2 8.0 0.00 0.00 0.00 77 1017.3
20260509020138 20 96 3.2 9.7 0.00 0.00 0.00 77 1017.2
20260509015632 20 92 3.2 9.7 0.00 0.00 0.00 77 1017.3
20260509015132 20 58 1.6 9.7 0.00 0.00 0.00 77 1017.4
20260509014630 20 57 1.6 9.7 0.00 0.00 0.00 77 1017.2
20260509014129 20 71 3.2 9.7 0.00 0.00 0.00 77 1017.1
20260509013629 20 63 1.6 9.7 0.00 0.00 0.00 77 1017.1
20260509013129 20 89 3.2 9.7 0.00 0.00 0.00 77 1017.0
20260509012630 20 88 4.8 11.3 0.00 0.00 0.00 77 1017.0
20260509012129 20 94 4.8 11.3 0.00 0.00 0.00 76 1017.0
20260509011630 20 92 3.2 9.7 0.00 0.00 0.00 76 1017.0
20260509011129 20 90 3.2 9.7 0.00 0.00 0.00 76 1017.1
20260509010629 20 84 3.2 9.7 0.00 0.00 0.00 76 1017.1
20260509010128 20 80 3.2 9.7 0.00 0.00 0.00 76 1016.8
20260509005630 20 105 3.2 11.3 0.00 0.00 0.00 76 1016.8
20260509005130 20 72 4.8 12.9 0.00 0.00 0.00 76 1016.9
20260509004629 20 106 4.8 12.9 0.00 0.00 0.00 76 1016.9
20260509004130 20 117 3.2 6.4 0.00 0.00 0.00 76 1017.1
20260509003905 20 82 3.2 6.4 0.00 0.00 0.00 76 1017.0
20260509003133 20 84 3.2 9.7 0.00 0.00 0.00 76 1017.0
20260509002635 20 82 3.2 9.7 0.00 0.00 0.00 76 1016.7
20260509002133 20 88 3.2 9.7 0.00 0.00 0.00 76 1016.8
20260509001632 20 98 4.8 11.3 0.00 0.00 0.00 76 1016.6
20260509001129 20 90 4.8 14.5 0.00 0.00 0.00 76 1016.5
20260509000639 20 105 4.8 14.5 0.00 0.00 0.00 76 1016.5
20260509000130 20 89 6.4 14.5 0.00 0.00 0.00 75 1016.3
20260508235632 20 80 4.8 14.5 0.00 0.00 0.00 75 1016.3
20260508235130 20 105 4.8 11.3 0.00 0.00 0.00 74 1016.4
20260508234630 20 86 4.8 11.3 0.00 0.00 0.00 74 1016.6
20260508234355 20 97 4.8 11.3 0.00 0.00 0.00 74 1016.6
20260508233631 20 88 4.8 14.5 0.00 0.00 0.00 74 1016.5
20260508233130 20 88 4.8 14.5 0.00 0.00 0.00 74 1016.3
20260508232857 20 81 4.8 12.9 0.00 0.00 0.00 74 1016.3
20260508232124 20 59 4.8 12.9 0.00 0.00 0.00 74 1016.3
20260508231618 20 90 4.8 9.7 0.00 0.00 0.00 74 1016.4
20260508231112 20 77 4.8 11.3 0.00 0.00 0.00 73 1016.5
20260508230606 20 86 4.8 9.7 0.00 0.00 0.00 73 1016.5
20260508230105 20 90 4.8 12.9 0.00 0.00 0.00 73 1016.5
20260508225605 20 78 4.8 12.9 0.00 0.00 0.00 73 1016.5
20260508225106 20 95 4.8 16.1 0.00 0.00 0.00 72 1016.4
20260508224606 20 84 4.8 16.1 0.00 0.00 0.00 72 1016.2
20260508224338 20 78 4.8 11.3 0.00 0.00 0.00 72 1016.2
20260508223612 20 80 4.8 11.3 0.00 0.00 0.00 72 1016.1
20260508223102 20 107 4.8 11.3 0.00 0.00 0.00 72 1016.3
20260508222603 20 85 4.8 12.9 0.00 0.00 0.00 72 1016.1
20260508222103 20 59 4.8 12.9 0.00 0.00 0.00 72 1016.1
20260508221603 20 95 4.8 12.9 0.00 0.00 0.00 72 1016.3
20260508221101 20 84 4.8 12.9 0.00 0.00 0.00 71 1016.4
20260508220604 20 115 3.2 11.3 0.00 0.00 0.00 71 1016.4
20260508215606 20 138 6.4 17.7 0.00 0.00 0.00 72 1016.3
20260508215102 20 111 9.7 20.9 0.00 0.00 0.00 71 1016.3
20260508214603 20 82 8.0 20.9 0.00 0.00 0.00 71 1016.2
20260508214100 20 94 6.4 14.5 0.00 0.00 0.00 71 1016.3
20260508213604 20 92 8.0 14.5 0.00 0.00 0.00 71 1016.3
20260508213102 20 88 8.0 16.1 0.00 0.00 0.00 70 1016.4
20260508212836 20 103 6.4 16.1 0.00 0.00 0.00 70 1016.8
20260508212101 20 74 4.8 12.9 0.00 0.00 0.00 70 1017.0
20260508211601 20 111 4.8 14.5 0.00 0.00 0.00 69 1017.1
20260508211102 20 97 6.4 16.1 0.00 0.00 0.00 70 1016.9
20260508210603 20 107 6.4 16.1 0.00 0.00 0.00 70 1016.7
20260508205601 20 103 6.4 14.5 0.00 0.00 0.00 69 1016.7
20260508205102 20 119 8.0 16.1 0.00 0.00 0.00 69 1016.7
20260508204601 20 88 8.0 17.7 0.00 0.00 0.00 70 1016.5
20260508204102 20 141 8.0 20.9 0.00 0.00 0.00 70 1016.4
20260508203605 20 117 8.0 20.9 0.00 0.00 0.00 70 1016.3
20260508203101 20 111 9.7 22.5 0.00 0.00 0.00 69 1016.1
20260508202601 20 90 11.3 22.5 0.00 0.00 0.00 69 1016.4
20260508202102 20 140 11.3 20.9 0.00 0.00 0.00 71 1016.5
20260508201603 20 91 9.7 19.3 0.00 0.00 0.00 69 1016.5
20260508201059 20 90 8.0 19.3 0.00 0.00 0.00 70 1016.7
20260508200815 20 118 9.7 20.9 0.00 0.00 0.00 70 1016.9
20260508200313 20 123 11.3 20.9 0.00 0.00 0.00 71 1017.0
20260508195813 20 102 9.7 19.3 0.00 0.00 0.00 69 1017.3
20260508195035 20 126 9.7 20.9 0.00 0.00 0.00 69 1017.3
20260508194802 20 66 11.3 20.9 0.00 0.00 0.00 68 1017.4
20260508194031 20 77 12.9 20.9 0.00 0.00 0.00 70 1017.5
20260508193533 20 92 11.3 27.4 0.00 0.00 0.00 69 1017.3
20260508193031 20 82 11.3 27.4 0.00 0.00 0.00 69 1017.2
20260508192534 20 89 11.3 20.9 0.00 0.00 0.00 69 1017.2
20260508192032 21 105 9.7 22.5 0.00 0.00 0.00 69 1017.4
20260508191533 21 96 11.3 22.5 0.00 0.00 0.00 66 1017.5
20260508191303 21 105 11.3 20.9 0.00 0.00 0.00 66 1017.4
20260508190531 21 84 11.3 20.9 0.00 0.00 0.00 65 1017.4
20260508190031 21 105 11.3 24.1 0.00 0.00 0.00 66 1017.4
20260508185534 21 74 11.3 24.1 0.00 0.00 0.00 66 1017.5
20260508185031 21 109 12.9 25.7 0.00 0.00 0.00 67 1017.5
20260508184807 21 113 11.3 25.7 0.00 0.00 0.00 64 1017.8
20260508184257 21 78 9.7 22.5 0.00 0.00 0.00 64 1017.9
20260508183534 21 92 9.7 17.7 0.00 0.00 0.00 64 1017.8
20260508183257 22 69 9.7 22.5 0.00 0.00 0.00 64 1017.8
20260508182539 21 126 11.3 25.7 0.00 0.00 0.00 65 1017.8
20260508182034 21 102 11.3 25.7 0.00 0.00 0.00 65 1018.0
20260508181803 21 62 11.3 20.9 0.00 0.00 0.00 62 1018.0
20260508181036 21 49 9.7 20.9 0.00 0.00 0.00 63 1018.0
20260508180534 21 121 9.7 20.9 0.00 0.00 0.00 63 1018.0
20260508180255 22 88 8.0 20.9 0.00 0.00 0.00 63 1018.1
20260508175537 22 77 8.0 22.5 0.00 0.00 0.00 64 1018.2
20260508175033 22 106 11.3 24.1 0.00 0.00 0.00 62 1018.2
20260508174536 21 100 11.3 24.1 0.00 0.00 0.00 62 1018.2
20260508174033 21 109 9.7 24.1 0.00 0.00 0.00 61 1018.1
20260508173539 21 121 9.7 24.1 0.00 0.00 0.00 63 1018.1
20260508173035 21 84 9.7 19.3 0.00 0.00 0.00 62 1018.1
20260508172538 21 95 9.7 25.7 0.00 0.00 0.00 64 1018.3
20260508172037 22 87 9.7 25.7 0.00 0.00 0.00 62 1018.2
20260508171544 22 97 9.7 22.5 0.00 0.00 0.00 61 1018.3
20260508171035 21 106 11.3 22.5 0.00 0.00 0.00 62 1018.4
20260508170533 21 136 12.9 22.5 0.00 0.00 0.00 64 1018.5
20260508165533 21 80 11.3 24.1 0.00 0.00 0.00 63 1018.7
20260508165032 21 109 11.3 22.5 0.00 0.00 0.00 63 1018.5
20260508164801 22 119 9.7 22.5 0.00 0.00 0.00 61 1018.4
20260508164034 22 106 9.7 22.5 0.00 0.00 0.00 63 1018.4
20260508163539 21 98 11.3 22.5 0.00 0.00 0.00 61 1018.4
20260508163035 22 79 9.7 22.5 0.00 0.00 0.00 59 1018.6
20260508162534 22 80 8.0 22.5 0.00 0.00 0.00 61 1018.6
20260508162258 22 73 8.0 19.3 0.00 0.00 0.00 61 1018.7
20260508161536 22 76 9.7 25.7 0.00 0.00 0.00 60 1018.9
20260508161031 22 98 8.0 25.7 0.00 0.00 0.00 59 1019.1
20260508160531 23 88 4.8 19.3 0.00 0.00 0.00 52 1019.1
20260508160028 23 82 6.4 14.5 0.00 0.00 0.00 52 1019.3
20260508155530 22 94 8.0 20.9 0.00 0.00 0.00 56 1019.3
20260508155253 22 84 6.4 20.9 0.00 0.00 0.00 54 1019.4
20260508154530 22 86 3.2 11.3 0.00 0.00 0.00 55 1019.4
20260508154031 22 90 3.2 9.7 0.00 0.00 0.00 54 1019.5
20260508153534 23 26 3.2 11.3 0.00 0.00 0.00 56 1019.4
20260508153030 22 302 3.2 16.1 0.00 0.00 0.00 55 1019.4
20260508152533 22 26 4.8 16.1 0.00 0.00 0.00 55 1019.3
20260508152030 22 82 3.2 16.1 0.00 0.00 0.00 53 1019.4
20260508151531 22 88 3.2 16.1 0.00 0.00 0.00 53 1019.2
20260508151030 23 35 4.8 17.7 0.00 0.00 0.00 56 1019.2
20260508150532 22 15 4.8 17.7 0.00 0.00 0.00 57 1019.2
20260508150029 22 72 4.8 16.1 0.00 0.00 0.00 56 1019.3
20260508145529 22 105 3.2 12.9 0.00 0.00 0.00 60 1019.3
20260508145030 22 137 3.2 12.9 0.00 0.00 0.00 60 1019.3
20260508144043 21 36 3.2 16.1 0.00 0.00 0.00 62 1019.0
20260508143532 20 345 3.2 8.0 0.00 0.00 0.00 65 1019.1
20260508143030 20 37 3.2 12.9 0.00 0.00 0.00 65 1019.1
20260508142530 19 25 1.6 12.9 0.00 0.00 0.00 67 1019.1
20260508142249 19 27 1.6 11.3 0.00 0.00 0.00 67 1018.9
20260508141529 18 40 3.2 11.3 0.00 0.00 0.00 65 1018.9
20260508141259 19 35 1.6 6.4 0.00 0.00 0.00 67 1018.8
20260508140528 19 30 1.6 4.8 0.00 0.00 0.00 67 1018.6
20260508140030 18 9 1.6 8.0 0.00 0.00 0.00 67 1018.6
20260508135529 19 22 3.2 8.0 0.00 0.00 0.00 67 1018.6